SL-16 DEB, 22605

Orbit data source: Space-Track

SL-16 DEB, 22605 is space debris in LEO originally from a launch on Fri, 26 Mar 1993 UTC launched from the Tyuratam Missile And Space Complex (TTMTR). Debris objects in space refer to the collection of defunct objects orbiting the Earth. Examples of debris include non-operational satellites, rocket bodies, and fragments generated from explosions, collisions, or faulty payload assembly.

Loading next visibility...
Identifier
22605, 1993-016P
Orbit
LEO
Country
Flag of CISCIS
Related business
Manufacturer
Unknown
Mission
Spacecraft
Bus & Motor
Unknown
Mass
Unknown
Launch date (UTC)
1993-03-26 (33 years ago)
Launch vehicle
Unknown
Launch site
Tyuratam Missile And Space Complex (TTMTR)
Object type
Payload
Rocket body
Debris
Shape & HBR
Unknown shape, 0.1 m
Radar Cross Section
Small (<0.1 m²)

Expand to show TLE details & history
Last TLE update: 3 days ago

TLE from 3 days ago
0 SL-16 DEB
1 22605U 93016P   25339.18901839  .00000462  00000-0  37645-3 0  9995
2 22605  70.9981  10.5768 0131668 320.2798 108.7306 13.91061809657308
Epoch: 2025-12-05T04:32Z
TLE epoch observation values (Epoch: 2025-12-05T04:32:11.188Z)
Latitude
63.09045°
Longitude
-89.2525°
Altitude
967.223 km
Speed
7.358 km/s
True Right ascension
03h 32m 06s
True Declination
62° 57' 19"
Sunlit
Object was in full shadow at epoch
Visualization orbit readout
Latitude
Unknown
Longitude
Unknown
Altitude
Unknown
Speed
Unknown
Apparent Right ascension
Unknown
Apparent Declination
Unknown
Sunlit
N/A
Visualization observer readout
Local Sidereal Time
15:58:51
Azimuth
Unknown
Elevation
Unknown
Doppler factor
Unknown
Orbital elements
Apogee altitude
1,018.991 km
Perigee altitude
826.729 km
Semi-major axis
7,300.997 km
Eccentricity
0.01317
Inclination
70.9981°
RAAN
10.5768°
Arg. of periapsis
320.2798°
True anomaly
110.15184°
Mean anomaly
108.7306°
Eccentric anomaly
109.44199°
Mean motion
3.47912 °/min
Orbital period
103.47 mins
BSTAR
0.00037645
Loading maneuver chart data...
Computing Atmospheric mass density...
Loading historical data...
Loading historical data...
Loading historical data...
Loading historical data...
Loading historical data...
Loading historical data...
Loading historical data...

Documentation

Showing up to 5 results
|